Location: Lecco
(45.8566°N, 9.3977°E)
Time: 05:39:48
(UTC+02:00)

Courier 1B Rocket - Pass Details

Date: 30 August 2019
Orbit: 920 x 1202 km, 28.2° (Epoch: 20 September)

Event Time Altitude Azimuth Distance (km) Brightness Sun altitude
Rises 01:59:01 0° 222° (SW) 3,672 - -34.4°
Reaches altitude 10° 02:02:53 10° 200° (SSW) 2,780 - -34.3°
Maximum altitude 02:06:30 15° 167° (SSE) 2,481 - -34.1°
Drops below altitude 10° 02:10:13 10° 135° (SE) 2,895 - -34.0°
Sets 02:14:23 0° 114° (ESE) 3,917 - -33.8°
